{"data":{"norad_id":66699,"epoch":"2026-05-25T03:36:25.489728Z","epoch_age_seconds":55865,"freshness":"FRESH","line1":"1 66699U 25276AK  26145.15029502  .00007612  00000+0  35857-3 0  9996","line2":"2 66699  97.4203 219.0934 0005445  95.3990 264.7866 15.19785715 26921","mean_motion":15.19785715,"eccentricity":0.0005445,"inclination_deg":97.4203,"raan_deg":219.0934,"arg_perigee_deg":95.399,"mean_anomaly_deg":264.7866,"bstar":0.00035857,"rev_number":2692,"period_min":94.750199701673,"perigee_km":502.73899984367,"apogee_km":510.23635611799,"semimajor_km":6884.6246779808,"source":"CELESTRAK","updated_at":"2026-05-25T13:38:06.415720Z"}}